Location: Beaurecueil
(43.5122°N, 5.5450°E)
Time: 13:15:16
(UTC+00:00)

CSL-04 Debris - Pass Details

Date: 18 September 2020
Orbit: 827 x 847 km, 98.9° (Epoch: 30 October)

Event Time Altitude Azimuth Distance (km) Brightness Sun altitude
Rises 18:15:04 0° 156° (SSE) 3,359 7.0 -6.8°
Reaches altitude 10° 18:17:25 10° 154° (SSE) 2,427 6.3 -7.2°
Maximum altitude 18:22:45 69° 72° (ENE) 886 4.2 -8.2°
Drops below altitude 10° 18:28:06 10° 351° (N) 2,441 6.9 -9.1°
Sets 18:30:28 0° 349° (NNW) 3,379 7.7 -9.6°
